Time,TemperatureF,DewpointF,PressureIn,WindDirection,WindDirectionDegrees,WindSpeedMPH,WindSpeedGustMPH,Humidity,HourlyPrecipIn,Conditions,Clouds,dailyrainin,SoftwareType,DateUTC
2013-09-11 00:01:00,68.2,62.0,29.03,WSW,247,1.6,2.0,83,0.00,,,0.00,Rainwise IP-100,2013-09-11 05:01:00,
2013-09-11 00:06:00,68.0,63.0,29.04,WSW,247,0.0,1.0,84,0.00,,,0.00,Rainwise IP-100,2013-09-11 05:06:00,
2013-09-11 00:11:00,67.9,63.0,29.04,WSW,247,2.3,2.3,85,0.00,,,0.00,Rainwise IP-100,2013-09-11 05:11:00,
2013-09-11 00:16:00,67.9,63.0,29.04,WSW,247,2.6,3.0,86,0.00,,,0.00,Rainwise IP-100,2013-09-11 05:16:00,
2013-09-11 00:21:00,67.8,63.0,29.04,WSW,247,2.1,3.0,86,0.00,,,0.00,Rainwise IP-100,2013-09-11 05:21:00,
2013-09-11 00:26:00,67.6,63.0,29.04,West,270,3.0,3.0,87,0.00,,,0.00,Rainwise IP-100,2013-09-11 05:26:00,
2013-09-11 00:31:00,67.5,64.0,29.04,WSW,247,0.0,3.0,88,0.00,,,0.00,Rainwise IP-100,2013-09-11 05:31:00,
2013-09-11 00:36:00,67.4,64.0,29.04,WSW,247,0.0,1.0,88,0.00,,,0.00,Rainwise IP-100,2013-09-11 05:36:00,
2013-09-11 00:41:00,67.4,64.0,29.04,WSW,247,1.4,2.0,88,0.00,,,0.00,Rainwise IP-100,2013-09-11 05:41:00,
2013-09-11 00:46:00,67.5,64.0,29.04,WSW,247,0.0,2.0,88,0.00,,,0.00,Rainwise IP-100,2013-09-11 05:46:00,
2013-09-11 00:51:00,67.2,63.0,29.04,WSW,247,0.0,0.0,88,0.00,,,0.00,Rainwise IP-100,2013-09-11 05:51:00,
2013-09-11 00:56:00,67.1,63.0,29.04,WSW,247,1.2,2.0,86,0.00,,,0.00,Rainwise IP-100,2013-09-11 05:56:00,
2013-09-11 01:01:00,67.6,63.0,29.04,WSW,247,1.4,3.0,86,0.00,,,0.00,Rainwise IP-100,2013-09-11 06:01:00,
2013-09-11 01:06:00,67.6,64.0,29.04,WSW,247,0.0,2.0,88,0.00,,,0.00,Rainwise IP-100,2013-09-11 06:06:00,
2013-09-11 01:11:00,67.5,64.0,29.04,WSW,247,1.4,2.0,89,0.00,,,0.00,Rainwise IP-100,2013-09-11 06:11:00,
2013-09-11 01:16:00,67.7,64.0,29.04,WSW,247,2.3,3.0,88,0.00,,,0.00,Rainwise IP-100,2013-09-11 06:16:00,
2013-09-11 01:21:00,67.9,64.0,29.04,WSW,247,2.8,2.8,89,0.00,,,0.00,Rainwise IP-100,2013-09-11 06:21:00,
2013-09-11 01:26:00,67.7,64.0,29.04,WSW,247,0.0,3.0,89,0.00,,,0.00,Rainwise IP-100,2013-09-11 06:26:00,
2013-09-11 01:31:00,67.6,64.0,29.04,West,270,1.4,2.0,90,0.00,,,0.00,Rainwise IP-100,2013-09-11 06:31:00,
2013-09-11 01:36:00,67.6,64.0,29.04,WSW,247,4.0,4.0,90,0.00,,,0.00,Rainwise IP-100,2013-09-11 06:36:00,
2013-09-11 01:41:00,67.5,64.0,29.05,WSW,247,1.9,4.0,90,0.00,,,0.00,Rainwise IP-100,2013-09-11 06:41:00,
2013-09-11 01:46:00,67.3,64.0,29.04,WSW,247,0.0,2.0,89,0.00,,,0.00,Rainwise IP-100,2013-09-11 06:46:00,
2013-09-11 01:51:00,67.2,63.0,29.04,WSW,247,2.1,4.0,88,0.00,,,0.00,Rainwise IP-100,2013-09-11 06:51:00,
2013-09-11 01:56:00,67.4,63.0,29.04,WSW,247,1.4,4.0,87,0.00,,,0.00,Rainwise IP-100,2013-09-11 06:56:00,
2013-09-11 02:01:00,67.6,63.0,29.04,WSW,247,0.0,2.0,86,0.00,,,0.00,Rainwise IP-100,2013-09-11 07:01:00,
2013-09-11 02:06:00,67.6,63.0,29.04,WSW,247,1.4,2.0,86,0.00,,,0.00,Rainwise IP-100,2013-09-11 07:06:00,
2013-09-11 02:11:00,67.6,63.0,29.03,WSW,247,0.0,2.0,86,0.00,,,0.00,Rainwise IP-100,2013-09-11 07:11:00,
2013-09-11 02:16:00,67.6,63.0,29.03,WSW,247,0.0,2.0,87,0.00,,,0.00,Rainwise IP-100,2013-09-11 07:16:00,
2013-09-11 02:21:00,67.5,63.0,29.03,WSW,247,0.0,1.0,87,0.00,,,0.00,Rainwise IP-100,2013-09-11 07:21:00,
2013-09-11 02:26:00,67.4,63.0,29.03,WSW,247,1.6,2.0,87,0.00,,,0.00,Rainwise IP-100,2013-09-11 07:26:00,
2013-09-11 02:31:00,67.4,63.0,29.03,WSW,247,0.0,2.0,87,0.00,,,0.00,Rainwise IP-100,2013-09-11 07:31:00,
2013-09-11 02:36:00,67.3,63.0,29.04,WSW,247,0.0,1.0,87,0.00,,,0.00,Rainwise IP-100,2013-09-11 07:36:00,
2013-09-11 02:41:00,67.1,63.0,29.03,WSW,247,0.0,0.0,86,0.00,,,0.00,Rainwise IP-100,2013-09-11 07:41:00,
2013-09-11 02:46:00,67.1,63.0,29.03,WSW,247,0.0,0.0,86,0.00,,,0.00,Rainwise IP-100,2013-09-11 07:46:00,
2013-09-11 02:51:00,67.0,63.0,29.03,WSW,247,0.0,0.0,87,0.00,,,0.00,Rainwise IP-100,2013-09-11 07:51:00,
2013-09-11 02:56:00,66.9,63.0,29.03,WSW,247,1.4,1.4,87,0.00,,,0.00,Rainwise IP-100,2013-09-11 07:56:00,
2013-09-11 03:01:00,67.0,63.0,29.04,WSW,247,0.0,3.0,88,0.00,,,0.00,Rainwise IP-100,2013-09-11 08:01:00,
2013-09-11 03:06:00,67.1,63.0,29.04,WSW,247,1.2,2.0,88,0.00,,,0.00,Rainwise IP-100,2013-09-11 08:06:00,
2013-09-11 03:11:00,67.1,64.0,29.04,WSW,247,2.6,3.0,89,0.00,,,0.00,Rainwise IP-100,2013-09-11 08:11:00,
2013-09-11 03:16:00,67.3,64.0,29.04,WSW,247,1.4,4.0,89,0.00,,,0.00,Rainwise IP-100,2013-09-11 08:16:00,
2013-09-11 03:21:00,67.2,64.0,29.04,WSW,247,2.3,3.0,89,0.00,,,0.00,Rainwise IP-100,2013-09-11 08:21:00,
2013-09-11 03:26:00,67.1,64.0,29.05,WSW,247,2.6,5.0,89,0.00,,,0.00,Rainwise IP-100,2013-09-11 08:26:00,
2013-09-11 03:31:00,67.1,64.0,29.04,WSW,247,2.3,4.0,89,0.00,,,0.00,Rainwise IP-100,2013-09-11 08:31:00,
2013-09-11 03:36:00,67.1,64.0,29.05,WSW,247,2.3,4.0,89,0.00,,,0.00,Rainwise IP-100,2013-09-11 08:36:00,
2013-09-11 03:41:00,67.1,64.0,29.05,SW,225,2.3,4.0,89,0.00,,,0.00,Rainwise IP-100,2013-09-11 08:41:00,
2013-09-11 03:46:00,67.0,63.0,29.05,WSW,247,3.0,4.0,88,0.00,,,0.00,Rainwise IP-100,2013-09-11 08:46:00,
2013-09-11 03:51:00,67.1,63.0,29.04,WSW,247,2.3,5.0,87,0.00,,,0.00,Rainwise IP-100,2013-09-11 08:51:00,
2013-09-11 03:56:00,67.1,63.0,29.05,WSW,247,4.2,5.0,87,0.00,,,0.00,Rainwise IP-100,2013-09-11 08:56:00,
2013-09-11 04:01:00,67.1,63.0,29.05,WSW,247,4.7,6.0,87,0.00,,,0.00,Rainwise IP-100,2013-09-11 09:01:00,
2013-09-11 04:06:00,67.2,63.0,29.05,WSW,247,5.6,6.0,87,0.00,,,0.00,Rainwise IP-100,2013-09-11 09:06:00,
2013-09-11 04:11:00,67.3,63.0,29.05,WSW,247,3.3,7.0,87,0.00,,,0.00,Rainwise IP-100,2013-09-11 09:11:00,
2013-09-11 04:16:00,67.2,63.0,29.05,SW,225,2.6,6.0,87,0.00,,,0.00,Rainwise IP-100,2013-09-11 09:16:00,
2013-09-11 04:21:00,67.0,63.0,29.05,SW,225,2.3,6.0,86,0.00,,,0.00,Rainwise IP-100,2013-09-11 09:21:00,
2013-09-11 04:26:00,66.9,63.0,29.05,WSW,247,1.9,4.0,86,0.00,,,0.00,Rainwise IP-100,2013-09-11 09:26:00,
2013-09-11 04:31:00,66.6,62.0,29.05,WSW,247,0.0,1.0,86,0.00,,,0.00,Rainwise IP-100,2013-09-11 09:31:00,
2013-09-11 04:36:00,66.3,62.0,29.05,WSW,247,1.2,2.0,86,0.00,,,0.00,Rainwise IP-100,2013-09-11 09:36:00,
2013-09-11 04:41:00,66.2,62.0,29.05,SW,225,1.2,2.0,87,0.00,,,0.00,Rainwise IP-100,2013-09-11 09:41:00,
2013-09-11 04:46:00,66.2,62.0,29.05,SW,225,1.2,3.0,87,0.00,,,0.00,Rainwise IP-100,2013-09-11 09:46:00,
2013-09-11 04:51:00,66.1,62.0,29.05,SW,225,1.4,1.4,89,0.00,,,0.00,Rainwise IP-100,2013-09-11 09:51:00,
2013-09-11 04:56:00,66.0,62.0,29.05,WSW,247,1.6,3.0,89,0.00,,,0.00,Rainwise IP-100,2013-09-11 09:56:00,
2013-09-11 05:01:00,66.0,63.0,29.05,WSW,247,2.1,3.0,90,0.00,,,0.00,Rainwise IP-100,2013-09-11 10:01:00,
2013-09-11 05:06:00,66.1,63.0,29.05,WSW,247,2.3,3.0,90,0.00,,,0.00,Rainwise IP-100,2013-09-11 10:06:00,
2013-09-11 05:11:00,66.0,63.0,29.05,WSW,247,2.3,2.3,90,0.00,,,0.00,Rainwise IP-100,2013-09-11 10:11:00,
2013-09-11 05:16:00,66.0,62.0,29.05,SW,225,1.4,3.0,89,0.00,,,0.00,Rainwise IP-100,2013-09-11 10:16:00,
2013-09-11 05:21:00,66.1,62.0,29.05,WSW,247,1.2,4.0,89,0.00,,,0.00,Rainwise IP-100,2013-09-11 10:21:00,
2013-09-11 05:26:00,66.1,62.0,29.05,WSW,247,1.9,1.9,89,0.00,,,0.00,Rainwise IP-100,2013-09-11 10:26:00,
2013-09-11 05:31:00,66.1,62.0,29.05,WSW,247,2.3,4.0,89,0.00,,,0.00,Rainwise IP-100,2013-09-11 10:31:00,
2013-09-11 05:36:00,66.2,62.0,29.06,SW,225,1.6,3.0,88,0.00,,,0.00,Rainwise IP-100,2013-09-11 10:36:00,
2013-09-11 05:41:00,66.2,62.0,29.05,WSW,247,0.0,3.0,88,0.00,,,0.00,Rainwise IP-100,2013-09-11 10:41:00,
2013-09-11 05:46:00,66.1,62.0,29.06,SW,225,1.9,2.0,88,0.00,,,0.00,Rainwise IP-100,2013-09-11 10:46:00,
2013-09-11 05:51:00,66.1,62.0,29.06,SW,225,1.6,2.0,88,0.00,,,0.00,Rainwise IP-100,2013-09-11 10:51:00,
2013-09-11 05:56:00,66.1,62.0,29.06,WSW,247,2.3,5.0,88,0.00,,,0.00,Rainwise IP-100,2013-09-11 10:56:00,
2013-09-11 06:01:00,66.2,62.0,29.06,WSW,247,2.3,3.0,88,0.00,,,0.00,Rainwise IP-100,2013-09-11 11:01:00,
2013-09-11 06:06:00,66.2,62.0,29.06,SW,225,2.1,3.0,88,0.00,,,0.00,Rainwise IP-100,2013-09-11 11:06:00,
2013-09-11 06:11:00,66.2,62.0,29.06,WSW,247,2.8,4.0,88,0.00,,,0.00,Rainwise IP-100,2013-09-11 11:11:00,
2013-09-11 06:16:00,66.3,62.0,29.06,SW,225,2.3,3.0,88,0.00,,,0.00,Rainwise IP-100,2013-09-11 11:16:00,
2013-09-11 06:21:00,66.5,62.0,29.06,WSW,247,3.3,5.0,87,0.00,,,0.00,Rainwise IP-100,2013-09-11 11:21:00,
2013-09-11 06:26:00,66.7,62.0,29.06,SW,225,1.6,3.0,87,0.00,,,0.00,Rainwise IP-100,2013-09-11 11:26:00,
2013-09-11 06:31:00,66.6,62.0,29.06,WSW,247,2.3,3.0,87,0.00,,,0.00,Rainwise IP-100,2013-09-11 11:31:00,
2013-09-11 06:36:00,66.6,62.0,29.06,SW,225,2.3,4.0,87,0.00,,,0.00,Rainwise IP-100,2013-09-11 11:36:00,
2013-09-11 06:41:00,66.7,62.0,29.06,WSW,247,2.1,4.0,87,0.00,,,0.00,Rainwise IP-100,2013-09-11 11:41:00,
2013-09-11 06:46:00,66.7,62.0,29.06,WSW,247,3.5,5.0,86,0.00,,,0.00,Rainwise IP-100,2013-09-11 11:46:00,
2013-09-11 06:51:00,66.7,62.0,29.06,WSW,247,2.3,4.0,86,0.00,,,0.00,Rainwise IP-100,2013-09-11 11:51:00,
2013-09-11 06:56:00,66.7,62.0,29.06,WSW,247,1.4,4.0,86,0.00,,,0.00,Rainwise IP-100,2013-09-11 11:56:00,
2013-09-11 07:01:00,66.7,62.0,29.06,SW,225,0.0,4.0,86,0.00,,,0.00,Rainwise IP-100,2013-09-11 12:01:00,
2013-09-11 07:06:00,66.7,62.0,29.06,SW,225,2.3,3.0,85,0.00,,,0.00,Rainwise IP-100,2013-09-11 12:06:00,
2013-09-11 07:11:00,66.7,61.0,29.06,SW,225,2.3,2.3,84,0.00,,,0.00,Rainwise IP-100,2013-09-11 12:11:00,
2013-09-11 07:16:00,66.7,61.0,29.06,WSW,247,1.2,2.0,84,0.00,,,0.00,Rainwise IP-100,2013-09-11 12:16:00,
2013-09-11 07:21:00,66.6,61.0,29.06,WSW,247,1.4,3.0,84,0.00,,,0.00,Rainwise IP-100,2013-09-11 12:21:00,
2013-09-11 07:26:00,66.8,61.0,29.06,WSW,247,4.4,4.4,84,0.00,,,0.00,Rainwise IP-100,2013-09-11 12:26:00,
2013-09-11 07:31:00,67.2,62.0,29.06,WSW,247,1.9,5.0,83,0.00,,,0.00,Rainwise IP-100,2013-09-11 12:31:00,
2013-09-11 07:36:00,67.5,62.0,29.06,WSW,247,0.0,4.0,82,0.00,,,0.00,Rainwise IP-100,2013-09-11 12:36:00,
2013-09-11 07:41:00,67.6,62.0,29.06,WSW,247,2.6,3.0,82,0.00,,,0.00,Rainwise IP-100,2013-09-11 12:41:00,
2013-09-11 07:46:00,67.9,62.0,29.06,SW,225,0.0,5.0,81,0.00,,,0.00,Rainwise IP-100,2013-09-11 12:46:00,
2013-09-11 07:51:00,68.0,62.0,29.06,WSW,247,4.7,5.0,81,0.00,,,0.00,Rainwise IP-100,2013-09-11 12:51:00,
2013-09-11 07:56:00,68.1,61.0,29.06,WSW,247,3.0,5.0,80,0.00,,,0.00,Rainwise IP-100,2013-09-11 12:56:00,
2013-09-11 08:01:00,68.2,61.0,29.05,WSW,247,3.5,5.0,80,0.00,,,0.00,Rainwise IP-100,2013-09-11 13:01:00,
2013-09-11 08:06:00,68.4,61.0,29.06,WSW,247,3.7,7.0,79,0.00,,,0.00,Rainwise IP-100,2013-09-11 13:06:00,
2013-09-11 08:11:00,68.7,61.0,29.06,SW,225,1.6,6.0,78,0.00,,,0.00,Rainwise IP-100,2013-09-11 13:11:00,
2013-09-11 08:16:00,69.0,61.0,29.06,WSW,247,0.0,4.0,77,0.00,,,0.00,Rainwise IP-100,2013-09-11 13:16:00,
2013-09-11 08:21:00,69.2,61.0,29.05,SW,225,1.6,6.0,76,0.00,,,0.00,Rainwise IP-100,2013-09-11 13:21:00,
2013-09-11 08:26:00,69.3,61.0,29.05,WSW,247,4.0,6.0,76,0.00,,,0.00,Rainwise IP-100,2013-09-11 13:26:00,
2013-09-11 08:31:00,69.3,61.0,29.05,SW,225,1.2,7.0,76,0.00,,,0.00,Rainwise IP-100,2013-09-11 13:31:00,
2013-09-11 08:36:00,69.4,61.0,29.05,WSW,247,4.0,6.0,76,0.00,,,0.00,Rainwise IP-100,2013-09-11 13:36:00,
2013-09-11 08:41:00,69.5,61.0,29.05,SW,225,5.4,7.0,75,0.00,,,0.00,Rainwise IP-100,2013-09-11 13:41:00,
2013-09-11 08:46:00,69.7,61.0,29.05,WSW,247,3.7,7.0,75,0.00,,,0.00,Rainwise IP-100,2013-09-11 13:46:00,
2013-09-11 08:51:00,69.8,61.0,29.05,SW,225,2.6,6.0,75,0.00,,,0.00,Rainwise IP-100,2013-09-11 13:51:00,
2013-09-11 08:56:00,70.0,61.0,29.05,WSW,247,6.8,7.0,74,0.00,,,0.00,Rainwise IP-100,2013-09-11 13:56:00,
2013-09-11 09:01:00,70.2,61.0,29.05,SW,225,5.6,10.0,74,0.00,,,0.00,Rainwise IP-100,2013-09-11 14:01:00,
2013-09-11 09:06:00,70.3,61.0,29.05,WSW,247,5.4,8.0,74,0.00,,,0.00,Rainwise IP-100,2013-09-11 14:06:00,
2013-09-11 09:11:00,70.3,61.0,29.05,WSW,247,4.9,11.0,73,0.00,,,0.00,Rainwise IP-100,2013-09-11 14:11:00,
2013-09-11 09:16:00,70.5,61.0,29.06,WSW,247,6.1,11.0,73,0.00,,,0.00,Rainwise IP-100,2013-09-11 14:16:00,
2013-09-11 09:21:00,70.6,61.0,29.06,SW,225,3.7,9.0,72,0.00,,,0.00,Rainwise IP-100,2013-09-11 14:21:00,
2013-09-11 09:26:00,70.7,61.0,29.05,WSW,247,6.8,11.0,72,0.00,,,0.00,Rainwise IP-100,2013-09-11 14:26:00,
2013-09-11 09:31:00,70.7,61.0,29.05,WSW,247,5.4,14.0,72,0.00,,,0.00,Rainwise IP-100,2013-09-11 14:31:00,
2013-09-11 09:36:00,70.7,61.0,29.06,WSW,247,3.3,10.0,72,0.00,,,0.00,Rainwise IP-100,2013-09-11 14:36:00,
2013-09-11 09:41:00,70.7,61.0,29.06,WSW,247,6.8,11.0,72,0.00,,,0.00,Rainwise IP-100,2013-09-11 14:41:00,
2013-09-11 09:46:00,70.8,61.0,29.06,WSW,247,4.9,10.0,72,0.00,,,0.00,Rainwise IP-100,2013-09-11 14:46:00,
2013-09-11 09:51:00,70.9,61.0,29.06,WSW,247,7.9,11.0,72,0.00,,,0.00,Rainwise IP-100,2013-09-11 14:51:00,
2013-09-11 09:56:00,71.0,61.0,29.06,WSW,247,3.3,10.0,73,0.00,,,0.00,Rainwise IP-100,2013-09-11 14:56:00,
2013-09-11 10:01:00,71.2,62.0,29.06,WSW,247,5.1,12.0,73,0.00,,,0.00,Rainwise IP-100,2013-09-11 15:01:00,
2013-09-11 10:06:00,71.4,62.0,29.06,WSW,247,5.8,12.0,73,0.00,,,0.00,Rainwise IP-100,2013-09-11 15:06:00,
2013-09-11 10:11:00,71.7,63.0,29.06,SW,225,3.7,9.0,74,0.00,,,0.00,Rainwise IP-100,2013-09-11 15:11:00,
2013-09-11 10:16:00,71.8,62.0,29.06,West,270,4.4,8.0,73,0.00,,,0.00,Rainwise IP-100,2013-09-11 15:16:00,
2013-09-11 10:21:00,72.2,63.0,29.06,WSW,247,4.0,7.0,72,0.00,,,0.00,Rainwise IP-100,2013-09-11 15:21:00,
2013-09-11 10:26:00,72.5,63.0,29.06,WSW,247,4.2,9.0,72,0.00,,,0.00,Rainwise IP-100,2013-09-11 15:26:00,
2013-09-11 10:31:00,72.7,63.0,29.06,SW,225,3.5,7.0,71,0.00,,,0.00,Rainwise IP-100,2013-09-11 15:31:00,
2013-09-11 10:36:00,72.9,62.0,29.06,West,270,5.1,10.0,69,0.00,,,0.00,Rainwise IP-100,2013-09-11 15:36:00,
2013-09-11 10:41:00,73.2,62.0,29.06,WSW,247,4.0,10.0,68,0.00,,,0.00,Rainwise IP-100,2013-09-11 15:41:00,
2013-09-11 10:46:00,73.4,62.0,29.06,WSW,247,8.2,9.0,67,0.00,,,0.00,Rainwise IP-100,2013-09-11 15:46:00,
2013-09-11 10:51:00,73.5,61.0,29.06,WSW,247,8.2,11.0,66,0.00,,,0.00,Rainwise IP-100,2013-09-11 15:51:00,
2013-09-11 10:56:00,73.8,61.0,29.06,WSW,247,5.4,10.0,66,0.00,,,0.00,Rainwise IP-100,2013-09-11 15:56:00,
2013-09-11 11:01:00,74.3,62.0,29.06,WSW,247,7.7,12.0,66,0.00,,,0.00,Rainwise IP-100,2013-09-11 16:01:00,
2013-09-11 11:06:00,74.7,62.0,29.06,SW,225,5.6,9.0,65,0.00,,,0.00,Rainwise IP-100,2013-09-11 16:06:00,
2013-09-11 11:11:00,75.0,62.0,29.06,SW,225,2.8,10.0,65,0.00,,,0.00,Rainwise IP-100,2013-09-11 16:11:00,
2013-09-11 11:16:00,75.3,62.0,29.06,WSW,247,6.3,10.0,64,0.00,,,0.00,Rainwise IP-100,2013-09-11 16:16:00,
2013-09-11 11:21:00,75.6,62.0,29.06,WSW,247,7.5,13.0,63,0.00,,,0.00,Rainwise IP-100,2013-09-11 16:21:00,
2013-09-11 11:26:00,75.8,61.0,29.06,WSW,247,9.1,12.0,62,0.00,,,0.00,Rainwise IP-100,2013-09-11 16:26:00,
2013-09-11 11:31:00,76.1,62.0,29.05,WSW,247,12.6,12.6,62,0.00,,,0.00,Rainwise IP-100,2013-09-11 16:31:00,
2013-09-11 11:36:00,76.3,62.0,29.06,WSW,247,6.1,13.0,61,0.00,,,0.00,Rainwise IP-100,2013-09-11 16:36:00,
2013-09-11 11:41:00,76.5,62.0,29.06,SW,225,5.6,12.0,61,0.00,,,0.00,Rainwise IP-100,2013-09-11 16:41:00,
2013-09-11 11:46:00,76.8,62.0,29.06,WSW,247,11.0,14.0,61,0.00,,,0.00,Rainwise IP-100,2013-09-11 16:46:00,
2013-09-11 11:51:00,76.9,62.0,29.05,WSW,247,9.3,17.0,60,0.00,,,0.00,Rainwise IP-100,2013-09-11 16:51:00,
2013-09-11 11:56:00,76.9,61.0,29.06,WSW,247,7.2,16.0,59,0.00,,,0.00,Rainwise IP-100,2013-09-11 16:56:00,
2013-09-11 12:01:00,77.1,62.0,29.06,West,270,8.2,10.0,60,0.00,,,0.00,Rainwise IP-100,2013-09-11 17:01:00,
2013-09-11 12:06:00,77.4,62.0,29.06,WSW,247,10.3,11.0,60,0.00,,,0.00,Rainwise IP-100,2013-09-11 17:06:00,
2013-09-11 12:11:00,77.5,62.0,29.06,West,270,5.8,16.0,59,0.00,,,0.00,Rainwise IP-100,2013-09-11 17:11:00,
2013-09-11 12:16:00,77.4,62.0,29.06,West,270,11.2,18.0,59,0.00,,,0.00,Rainwise IP-100,2013-09-11 17:16:00,
2013-09-11 12:21:00,77.6,62.0,29.06,WNW,292,9.3,15.0,59,0.00,,,0.00,Rainwise IP-100,2013-09-11 17:21:00,
2013-09-11 12:26:00,77.8,62.0,29.05,WSW,247,3.5,14.0,59,0.00,,,0.00,Rainwise IP-100,2013-09-11 17:26:00,
2013-09-11 12:31:00,77.8,62.0,29.06,WSW,247,7.7,14.0,59,0.00,,,0.00,Rainwise IP-100,2013-09-11 17:31:00,
2013-09-11 12:36:00,77.8,62.0,29.05,West,270,4.7,14.0,58,0.00,,,0.00,Rainwise IP-100,2013-09-11 17:36:00,
2013-09-11 12:41:00,77.8,62.0,29.06,West,270,8.4,13.0,58,0.00,,,0.00,Rainwise IP-100,2013-09-11 17:41:00,
2013-09-11 12:46:00,78.0,62.0,29.06,WSW,247,11.7,14.0,58,0.00,,,0.00,Rainwise IP-100,2013-09-11 17:46:00,
2013-09-11 12:51:00,78.1,62.0,29.05,WSW,247,11.7,15.0,59,0.00,,,0.00,Rainwise IP-100,2013-09-11 17:51:00,
2013-09-11 12:56:00,78.1,62.0,29.05,West,270,7.7,15.0,58,0.00,,,0.00,Rainwise IP-100,2013-09-11 17:56:00,
2013-09-11 13:01:00,78.3,62.0,29.06,WSW,247,7.2,14.0,58,0.00,,,0.00,Rainwise IP-100,2013-09-11 18:01:00,
2013-09-11 13:06:00,78.5,62.0,29.05,WNW,292,8.9,16.0,58,0.00,,,0.00,Rainwise IP-100,2013-09-11 18:06:00,
2013-09-11 13:11:00,78.5,62.0,29.06,NNW,337,5.6,16.0,57,0.00,,,0.00,Rainwise IP-100,2013-09-11 18:11:00,
2013-09-11 13:16:00,78.5,61.0,29.06,WNW,292,5.8,17.0,56,0.00,,,0.00,Rainwise IP-100,2013-09-11 18:16:00,
2013-09-11 13:21:00,78.3,61.0,29.06,SW,225,6.8,11.0,56,0.00,,,0.00,Rainwise IP-100,2013-09-11 18:21:00,
2013-09-11 13:26:00,78.1,61.0,29.06,West,270,7.9,18.0,56,0.00,,,0.00,Rainwise IP-100,2013-09-11 18:26:00,
2013-09-11 13:31:00,78.3,61.0,29.06,West,270,4.9,14.0,55,0.00,,,0.00,Rainwise IP-100,2013-09-11 18:31:00,
2013-09-11 13:36:00,78.5,61.0,29.06,WNW,292,9.1,18.0,55,0.00,,,0.00,Rainwise IP-100,2013-09-11 18:36:00,
2013-09-11 13:41:00,78.7,59.0,29.06,WNW,292,9.6,18.0,52,0.00,,,0.00,Rainwise IP-100,2013-09-11 18:41:00,
2013-09-11 13:46:00,78.9,59.0,29.06,West,270,8.6,17.0,50,0.00,,,0.00,Rainwise IP-100,2013-09-11 18:46:00,
2013-09-11 13:51:00,78.8,59.0,29.06,NNW,337,4.9,13.0,50,0.00,,,0.00,Rainwise IP-100,2013-09-11 18:51:00,
2013-09-11 13:56:00,78.7,59.0,29.06,WNW,292,11.7,14.0,50,0.00,,,0.00,Rainwise IP-100,2013-09-11 18:56:00,
2013-09-11 14:01:00,79.1,58.0,29.06,West,270,7.5,14.0,49,0.00,,,0.00,Rainwise IP-100,2013-09-11 19:01:00,
2013-09-11 14:06:00,79.3,57.0,29.06,WNW,292,14.0,17.0,47,0.00,,,0.00,Rainwise IP-100,2013-09-11 19:06:00,
2013-09-11 14:11:00,79.2,56.0,29.06,WNW,292,10.7,15.0,46,0.00,,,0.00,Rainwise IP-100,2013-09-11 19:11:00,
2013-09-11 14:16:00,79.1,56.0,29.06,WNW,292,5.1,15.0,46,0.00,,,0.00,Rainwise IP-100,2013-09-11 19:16:00,
2013-09-11 14:21:00,79.1,56.0,29.06,WNW,292,7.5,15.0,46,0.00,,,0.00,Rainwise IP-100,2013-09-11 19:21:00,
2013-09-11 14:26:00,79.1,56.0,29.06,West,270,8.9,12.0,46,0.00,,,0.00,Rainwise IP-100,2013-09-11 19:26:00,
2013-09-11 14:31:00,79.2,56.0,29.06,WSW,247,10.3,14.0,46,0.00,,,0.00,Rainwise IP-100,2013-09-11 19:31:00,
2013-09-11 14:36:00,79.3,57.0,29.06,WNW,292,7.0,13.0,47,0.00,,,0.00,Rainwise IP-100,2013-09-11 19:36:00,
2013-09-11 14:41:00,79.4,56.0,29.06,NW,315,4.2,12.0,46,0.00,,,0.00,Rainwise IP-100,2013-09-11 19:41:00,
2013-09-11 14:46:00,79.7,56.0,29.06,WNW,292,4.2,13.0,45,0.00,,,0.00,Rainwise IP-100,2013-09-11 19:46:00,
2013-09-11 14:51:00,80.2,56.0,29.06,WNW,292,3.5,11.0,44,0.00,,,0.00,Rainwise IP-100,2013-09-11 19:51:00,
2013-09-11 14:56:00,80.4,56.0,29.06,WNW,292,9.8,11.0,44,0.00,,,0.00,Rainwise IP-100,2013-09-11 19:56:00,
2013-09-11 15:01:00,80.1,55.0,29.06,WSW,247,9.8,11.0,43,0.00,,,0.00,Rainwise IP-100,2013-09-11 20:01:00,
2013-09-11 15:06:00,80.1,55.0,29.06,NW,315,4.4,11.0,43,0.00,,,0.00,Rainwise IP-100,2013-09-11 20:06:00,
2013-09-11 15:11:00,80.3,56.0,29.06,WNW,292,10.7,14.0,43,0.00,,,0.00,Rainwise IP-100,2013-09-11 20:11:00,
2013-09-11 15:16:00,80.4,54.0,29.06,NNE,22,3.0,14.0,41,0.00,,,0.00,Rainwise IP-100,2013-09-11 20:16:00,
2013-09-11 15:21:00,80.4,54.0,29.06,WNW,292,13.1,17.0,40,0.00,,,0.00,Rainwise IP-100,2013-09-11 20:21:00,
2013-09-11 15:26:00,80.2,54.0,29.06,WNW,292,9.1,14.0,40,0.00,,,0.00,Rainwise IP-100,2013-09-11 20:26:00,
2013-09-11 15:31:00,80.2,54.0,29.06,WNW,292,11.0,16.0,40,0.00,,,0.00,Rainwise IP-100,2013-09-11 20:31:00,
2013-09-11 15:36:00,80.1,53.0,29.06,West,270,8.2,16.0,40,0.00,,,0.00,Rainwise IP-100,2013-09-11 20:36:00,
2013-09-11 15:41:00,80.0,54.0,29.06,WSW,247,13.3,13.3,41,0.00,,,0.00,Rainwise IP-100,2013-09-11 20:41:00,
2013-09-11 15:46:00,80.0,53.0,29.06,WNW,292,2.1,14.0,40,0.00,,,0.00,Rainwise IP-100,2013-09-11 20:46:00,
2013-09-11 15:51:00,80.3,54.0,29.06,WNW,292,6.3,13.0,40,0.00,,,0.00,Rainwise IP-100,2013-09-11 20:51:00,
2013-09-11 15:56:00,80.5,54.0,29.06,NW,315,8.4,12.0,41,0.00,,,0.00,Rainwise IP-100,2013-09-11 20:56:00,
2013-09-11 16:01:00,80.5,54.0,29.06,WSW,247,3.0,11.0,41,0.00,,,0.00,Rainwise IP-100,2013-09-11 21:01:00,
2013-09-11 16:06:00,80.5,53.0,29.06,NW,315,2.8,10.0,39,0.00,,,0.00,Rainwise IP-100,2013-09-11 21:06:00,
2013-09-11 16:11:00,80.4,53.0,29.06,WNW,292,8.4,14.0,39,0.00,,,0.00,Rainwise IP-100,2013-09-11 21:11:00,
2013-09-11 16:16:00,80.4,53.0,29.06,WNW,292,9.1,17.0,39,0.00,,,0.00,Rainwise IP-100,2013-09-11 21:16:00,
2013-09-11 16:21:00,80.5,53.0,29.06,NW,315,12.8,14.0,39,0.00,,,0.00,Rainwise IP-100,2013-09-11 21:21:00,
2013-09-11 16:26:00,80.6,53.0,29.06,NW,315,2.8,14.0,38,0.00,,,0.00,Rainwise IP-100,2013-09-11 21:26:00,
2013-09-11 16:31:00,80.7,53.0,29.06,WNW,292,4.4,8.0,38,0.00,,,0.00,Rainwise IP-100,2013-09-11 21:31:00,
2013-09-11 16:36:00,80.8,54.0,29.06,West,270,6.5,11.0,40,0.00,,,0.00,Rainwise IP-100,2013-09-11 21:36:00,
2013-09-11 16:41:00,80.6,54.0,29.06,West,270,7.2,11.0,41,0.00,,,0.00,Rainwise IP-100,2013-09-11 21:41:00,
2013-09-11 16:46:00,80.5,54.0,29.06,WSW,247,7.5,14.0,41,0.00,,,0.00,Rainwise IP-100,2013-09-11 21:46:00,
2013-09-11 16:51:00,80.5,54.0,29.06,WSW,247,7.5,12.0,41,0.00,,,0.00,Rainwise IP-100,2013-09-11 21:51:00,
2013-09-11 16:56:00,80.5,55.0,29.06,WSW,247,7.2,9.0,42,0.00,,,0.00,Rainwise IP-100,2013-09-11 21:56:00,
2013-09-11 17:01:00,80.4,55.0,29.06,WSW,247,1.9,8.0,42,0.00,,,0.00,Rainwise IP-100,2013-09-11 22:01:00,
2013-09-11 17:06:00,80.5,54.0,29.05,WNW,292,7.5,11.0,41,0.00,,,0.00,Rainwise IP-100,2013-09-11 22:06:00,
2013-09-11 17:11:00,80.6,54.0,29.06,WNW,292,7.7,10.0,41,0.00,,,0.00,Rainwise IP-100,2013-09-11 22:11:00,
2013-09-11 17:16:00,80.5,54.0,29.05,WNW,292,4.0,10.0,41,0.00,,,0.00,Rainwise IP-100,2013-09-11 22:16:00,
2013-09-11 17:21:00,80.5,54.0,29.05,WNW,292,5.4,9.0,40,0.00,,,0.00,Rainwise IP-100,2013-09-11 22:21:00,
2013-09-11 17:26:00,80.6,54.0,29.05,WNW,292,4.0,6.0,40,0.00,,,0.00,Rainwise IP-100,2013-09-11 22:26:00,
2013-09-11 17:31:00,80.6,54.0,29.06,West,270,7.2,10.0,40,0.00,,,0.00,Rainwise IP-100,2013-09-11 22:31:00,
2013-09-11 17:36:00,80.5,54.0,29.06,West,270,6.1,11.0,41,0.00,,,0.00,Rainwise IP-100,2013-09-11 22:36:00,
2013-09-11 17:41:00,80.6,54.0,29.05,NW,315,1.9,9.0,41,0.00,,,0.00,Rainwise IP-100,2013-09-11 22:41:00,
2013-09-11 17:46:00,80.6,55.0,29.05,West,270,4.7,7.0,42,0.00,,,0.00,Rainwise IP-100,2013-09-11 22:46:00,
2013-09-11 17:51:00,80.8,54.0,29.05,NW,315,7.7,7.7,41,0.00,,,0.00,Rainwise IP-100,2013-09-11 22:51:00,
2013-09-11 17:56:00,81.0,54.0,29.05,WNW,292,4.0,8.0,39,0.00,,,0.00,Rainwise IP-100,2013-09-11 22:56:00,
2013-09-11 18:01:00,81.0,54.0,29.05,WSW,247,4.7,6.0,40,0.00,,,0.00,Rainwise IP-100,2013-09-11 23:01:00,
2013-09-11 18:06:00,80.9,55.0,29.05,West,270,3.7,7.0,41,0.00,,,0.00,Rainwise IP-100,2013-09-11 23:06:00,
2013-09-11 18:11:00,80.8,54.0,29.05,NW,315,4.0,8.0,41,0.00,,,0.00,Rainwise IP-100,2013-09-11 23:11:00,
2013-09-11 18:16:00,80.6,55.0,29.04,WSW,247,4.9,8.0,42,0.00,,,0.00,Rainwise IP-100,2013-09-11 23:16:00,
2013-09-11 18:21:00,80.4,55.0,29.05,West,270,4.7,8.0,42,0.00,,,0.00,Rainwise IP-100,2013-09-11 23:21:00,
2013-09-11 18:26:00,80.2,55.0,29.05,WSW,247,4.2,7.0,42,0.00,,,0.00,Rainwise IP-100,2013-09-11 23:26:00,
2013-09-11 18:31:00,80.1,54.0,29.05,West,270,1.9,7.0,42,0.00,,,0.00,Rainwise IP-100,2013-09-11 23:31:00,
2013-09-11 18:36:00,80.1,55.0,29.05,West,270,4.0,6.0,43,0.00,,,0.00,Rainwise IP-100,2013-09-11 23:36:00,
2013-09-11 18:41:00,79.9,55.0,29.04,West,270,3.0,7.0,43,0.00,,,0.00,Rainwise IP-100,2013-09-11 23:41:00,
2013-09-11 18:46:00,79.7,56.0,29.05,WSW,247,4.0,6.0,44,0.00,,,0.00,Rainwise IP-100,2013-09-11 23:46:00,
2013-09-11 18:51:00,79.6,56.0,29.05,West,270,2.1,4.0,44,0.00,,,0.00,Rainwise IP-100,2013-09-11 23:51:00,
2013-09-11 18:56:00,79.4,55.0,29.05,WSW,247,3.0,4.0,44,0.00,,,0.00,Rainwise IP-100,2013-09-11 23:56:00,
2013-09-11 19:01:00,79.2,56.0,29.04,WSW,247,2.1,3.0,46,0.00,,,0.00,Rainwise IP-100,2013-09-12 00:01:00,
2013-09-11 19:06:00,78.8,57.0,29.05,West,270,1.9,3.0,47,0.00,,,0.00,Rainwise IP-100,2013-09-12 00:06:00,
2013-09-11 19:11:00,78.5,57.0,29.05,WSW,247,1.4,3.0,47,0.00,,,0.00,Rainwise IP-100,2013-09-12 00:11:00,
2013-09-11 19:16:00,78.1,56.0,29.04,WSW,247,0.0,2.0,47,0.00,,,0.00,Rainwise IP-100,2013-09-12 00:16:00,
2013-09-11 19:21:00,77.8,55.0,29.04,WSW,247,0.0,1.0,46,0.00,,,0.00,Rainwise IP-100,2013-09-12 00:21:00,
2013-09-11 19:26:00,77.7,55.0,29.04,WSW,247,0.0,0.0,46,0.00,,,0.00,Rainwise IP-100,2013-09-12 00:26:00,
2013-09-11 19:31:00,76.9,56.0,29.04,WSW,247,1.2,0.0,48,0.00,,,0.00,Rainwise IP-100,2013-09-12 00:31:00,
2013-09-11 19:36:00,75.7,57.0,29.04,WSW,247,0.0,1.0,54,0.00,,,0.00,Rainwise IP-100,2013-09-12 00:36:00,
2013-09-11 19:41:00,74.9,59.0,29.05,WSW,247,0.0,0.0,57,0.00,,,0.00,Rainwise IP-100,2013-09-12 00:41:00,
2013-09-11 19:46:00,74.5,58.0,29.05,WSW,247,0.0,0.0,56,0.00,,,0.00,Rainwise IP-100,2013-09-12 00:46:00,
2013-09-11 19:51:00,73.9,59.0,29.05,WSW,247,1.2,1.2,59,0.00,,,0.00,Rainwise IP-100,2013-09-12 00:51:00,
2013-09-11 19:56:00,73.3,60.0,29.05,WSW,247,1.2,2.0,64,0.00,,,0.00,Rainwise IP-100,2013-09-12 00:56:00,
2013-09-11 20:01:00,73.1,60.0,29.05,WSW,247,0.0,1.0,65,0.00,,,0.00,Rainwise IP-100,2013-09-12 01:01:00,
2013-09-11 20:06:00,72.7,60.0,29.05,WSW,247,1.4,2.0,66,0.00,,,0.00,Rainwise IP-100,2013-09-12 01:06:00,
2013-09-11 20:11:00,72.1,61.0,29.05,WSW,247,0.0,2.0,70,0.00,,,0.00,Rainwise IP-100,2013-09-12 01:11:00,
2013-09-11 20:16:00,71.7,62.0,29.06,WSW,247,1.6,2.0,72,0.00,,,0.00,Rainwise IP-100,2013-09-12 01:16:00,
2013-09-11 20:21:00,71.6,62.0,29.06,WSW,247,2.8,3.0,73,0.00,,,0.00,Rainwise IP-100,2013-09-12 01:21:00,
2013-09-11 20:26:00,71.9,62.0,29.06,WSW,247,2.1,3.0,71,0.00,,,0.00,Rainwise IP-100,2013-09-12 01:26:00,
2013-09-11 20:31:00,72.6,61.0,29.06,WSW,247,2.6,3.0,67,0.00,,,0.00,Rainwise IP-100,2013-09-12 01:31:00,
2013-09-11 20:36:00,72.7,61.0,29.06,WSW,247,2.3,3.0,68,0.00,,,0.00,Rainwise IP-100,2013-09-12 01:36:00,
2013-09-11 20:41:00,72.2,62.0,29.06,WSW,247,1.9,4.0,71,0.00,,,0.00,Rainwise IP-100,2013-09-12 01:41:00,
2013-09-11 20:46:00,71.9,62.0,29.06,WSW,247,2.3,3.0,72,0.00,,,0.00,Rainwise IP-100,2013-09-12 01:46:00,
2013-09-11 20:51:00,71.7,62.0,29.06,WSW,247,2.1,3.0,73,0.00,,,0.00,Rainwise IP-100,2013-09-12 01:51:00,
2013-09-11 20:56:00,71.7,62.0,29.07,WSW,247,3.5,4.0,72,0.00,,,0.00,Rainwise IP-100,2013-09-12 01:56:00,
2013-09-11 21:01:00,72.0,61.0,29.07,WSW,247,6.1,6.1,70,0.00,,,0.00,Rainwise IP-100,2013-09-12 02:01:00,
2013-09-11 21:06:00,72.5,60.0,29.07,West,270,7.5,9.0,66,0.00,,,0.00,Rainwise IP-100,2013-09-12 02:06:00,
2013-09-11 21:11:00,73.2,59.0,29.07,WSW,247,8.4,10.0,61,0.00,,,0.00,Rainwise IP-100,2013-09-12 02:11:00,
2013-09-11 21:16:00,73.5,58.0,29.08,WSW,247,9.8,11.0,58,0.00,,,0.00,Rainwise IP-100,2013-09-12 02:16:00,
2013-09-11 21:21:00,73.6,57.0,29.08,WSW,247,6.8,11.0,56,0.00,,,0.00,Rainwise IP-100,2013-09-12 02:21:00,
2013-09-11 21:26:00,73.7,56.0,29.08,West,270,7.2,15.0,55,0.00,,,0.00,Rainwise IP-100,2013-09-12 02:26:00,
2013-09-11 21:31:00,73.6,56.0,29.08,West,270,7.0,13.0,55,0.00,,,0.00,Rainwise IP-100,2013-09-12 02:31:00,
2013-09-11 21:36:00,73.2,56.0,29.08,WSW,247,8.6,10.0,56,0.00,,,0.00,Rainwise IP-100,2013-09-12 02:36:00,
2013-09-11 21:41:00,72.8,56.0,29.08,West,270,7.7,9.0,57,0.00,,,0.00,Rainwise IP-100,2013-09-12 02:41:00,
2013-09-11 21:46:00,72.6,57.0,29.08,WNW,292,10.7,13.0,58,0.00,,,0.00,Rainwise IP-100,2013-09-12 02:46:00,
2013-09-11 21:51:00,72.4,56.0,29.08,WSW,247,7.7,13.0,58,0.00,,,0.00,Rainwise IP-100,2013-09-12 02:51:00,
2013-09-11 21:56:00,72.0,56.0,29.09,West,270,8.4,14.0,58,0.00,,,0.00,Rainwise IP-100,2013-09-12 02:56:00,
2013-09-11 22:01:00,71.7,56.0,29.09,West,270,5.4,11.0,59,0.00,,,0.00,Rainwise IP-100,2013-09-12 03:01:00,
2013-09-11 22:06:00,71.4,56.0,29.09,West,270,5.4,8.0,59,0.00,,,0.00,Rainwise IP-100,2013-09-12 03:06:00,
2013-09-11 22:11:00,71.3,56.0,29.09,WNW,292,7.9,12.0,59,0.00,,,0.00,Rainwise IP-100,2013-09-12 03:11:00,
2013-09-11 22:16:00,71.1,55.0,29.10,WNW,292,10.5,12.0,58,0.00,,,0.00,Rainwise IP-100,2013-09-12 03:16:00,
2013-09-11 22:21:00,71.1,54.0,29.10,NW,315,9.8,12.0,57,0.00,,,0.00,Rainwise IP-100,2013-09-12 03:21:00,
2013-09-11 22:26:00,71.1,54.0,29.10,WNW,292,6.3,14.0,56,0.00,,,0.00,Rainwise IP-100,2013-09-12 03:26:00,
2013-09-11 22:31:00,70.8,54.0,29.10,WSW,247,4.9,11.0,56,0.00,,,0.00,Rainwise IP-100,2013-09-12 03:31:00,
2013-09-11 22:36:00,70.6,54.0,29.10,West,270,7.5,12.0,56,0.00,,,0.00,Rainwise IP-100,2013-09-12 03:36:00,
2013-09-11 22:41:00,70.5,54.0,29.11,WNW,292,7.5,13.0,56,0.00,,,0.00,Rainwise IP-100,2013-09-12 03:41:00,
2013-09-11 22:46:00,70.4,53.0,29.11,WNW,292,8.4,9.0,55,0.00,,,0.00,Rainwise IP-100,2013-09-12 03:46:00,
2013-09-11 22:51:00,70.3,53.0,29.10,WNW,292,6.5,11.0,54,0.00,,,0.00,Rainwise IP-100,2013-09-12 03:51:00,
2013-09-11 22:56:00,70.3,53.0,29.11,NW,315,2.3,10.0,54,0.00,,,0.00,Rainwise IP-100,2013-09-12 03:56:00,
2013-09-11 23:01:00,70.1,53.0,29.11,WNW,292,11.0,11.0,54,0.00,,,0.00,Rainwise IP-100,2013-09-12 04:01:00,
2013-09-11 23:06:00,69.8,52.0,29.10,WNW,292,10.3,14.0,54,0.00,,,0.00,Rainwise IP-100,2013-09-12 04:06:00,
2013-09-11 23:11:00,69.7,52.0,29.11,NNW,337,5.1,11.0,54,0.00,,,0.00,Rainwise IP-100,2013-09-12 04:11:00,
2013-09-11 23:16:00,69.6,52.0,29.11,WNW,292,4.0,9.0,54,0.00,,,0.00,Rainwise IP-100,2013-09-12 04:16:00,
2013-09-11 23:21:00,69.4,52.0,29.11,WNW,292,7.2,10.0,54,0.00,,,0.00,Rainwise IP-100,2013-09-12 04:21:00,
2013-09-11 23:26:00,69.3,52.0,29.11,WSW,247,1.4,9.0,54,0.00,,,0.00,Rainwise IP-100,2013-09-12 04:26:00,
2013-09-11 23:31:00,69.1,52.0,29.11,WNW,292,2.6,8.0,55,0.00,,,0.00,Rainwise IP-100,2013-09-12 04:31:00,
2013-09-11 23:36:00,68.9,53.0,29.11,WNW,292,7.5,7.5,56,0.00,,,0.00,Rainwise IP-100,2013-09-12 04:36:00,
2013-09-11 23:41:00,68.8,52.0,29.11,WNW,292,4.0,9.0,56,0.00,,,0.00,Rainwise IP-100,2013-09-12 04:41:00,
2013-09-11 23:46:00,68.5,52.0,29.11,WNW,292,7.0,8.0,56,0.00,,,0.00,Rainwise IP-100,2013-09-12 04:46:00,
2013-09-11 23:51:00,68.3,53.0,29.11,West,270,4.7,7.0,58,0.00,,,0.00,Rainwise IP-100,2013-09-12 04:51:00,
2013-09-11 23:56:00,68.1,53.0,29.11,WNW,292,7.5,11.0,58,0.00,,,0.00,Rainwise IP-100,2013-09-12 04:56:00,